sat.trackr.live / text

‹ back to catalog

KUIPER-00428

NORAD 69593 · 2026-140B

PAYLOAD ACTIVE UNKNOWN

§ Identity

Operator
Country
US
Launch date
2026-06-17
Launch site
FRGUI
Launch vehicle
Mass (kg)
RCS (m²)

External: N2YO · Heavens-Above · Gunter

§ Orbital elements

Epoch: 2026-09-20T02:39:17.701056Z

Period
93.63 min
Inclination
51.8790°
Eccentricity
0.0004919
Mean motion
15.37956749 rev/d
Perigee alt
448.8 km
Apogee alt
455.5 km
Semi-major
6,830.3 km
B*
6.4094e-4
RAAN
299.9655°
Arg perigee
269.5999°
Mean anomaly
90.4424°
Rev number
1,583

§ Raw data

KUIPER-004281 69593U 26140B   26263.11062154  .00023993  00000+0  64094-3 0  99952 69593  51.8790 299.9655 0004919 269.5999  90.4424 15.37956749 15837

JSON: /api/v1/satellites/69593 · /tle

For live sub-satellite position, see the globe view (requires WebGL).

§ Visibility from observer

Set your observer location to see the next 7 days of passes ≥ 10°. The values pass through the URL so the page stays shareable.

No JS? Fill the form by hand. The geolocation button needs JavaScript.